Middlesboro, KY

7:12 AM CDT on May 25, 2018 (GMT -0500)
Middlesboro

Weather History for K1A6 - May, 2013

Change the Weather History Date:

Wednesday, May 8, 2013

  Actual Average (KLOZ) Record (KLOZ)
Temperature  
Mean Temperature 62 °F -  
Max Temperature 71 °F 73 °F 88 °F (2015)
Min Temperature 54 °F 49 °F 32 °F (1989)
Degree Days  
Heating Degree Days 3    
Growing Degree Days 12 (Base 50)    
Moisture  
Dew Point 56 °F    
Average Humidity 87    
Maximum Humidity 100    
Minimum Humidity 54    
Precipitation  
Precipitation 0.17 in - - ()
Sea Level Pressure  
Sea Level Pressure 30.01 in    
Wind  
Wind Speed 1 mph (NW)    
Max Wind Speed 12 mph    
Max Gust Speed 18 mph    
Visibility 7 miles    
Events Fog , Rain , Thunderstorm    
Averages and records for this station are not official NWS values.
T = Trace of Precipitation, MM = Missing Value Source: NWS Daily Summary

Daily Weather History Graph

Daily Weather History Graph

Search for Another Location

Airport or City:

Astronomy

May. 08, 2013 Rise Set
Actual Time 5:33 AM CDT 7:29 PM CDT
Civil Twilight 5:05 AM CDT 7:57 PM CDT
Nautical Twilight 4:31 AM CDT 8:32 PM CDT
Astronomical Twilight 3:54 AM CDT 9:09 PM CDT
Moon 4:39 AM CDT (5/8) 6:28 PM CDT (5/8)
Length of Visible Light 14h 52m
Length of Day
13h 55m
Waning Crescent, 2% of the Moon is Illuminated
May 8
Waning Crescent
May 9
New
May 17
First Quarter
May 24
Full
May 31
Last Quarter

Hourly Weather History & Observations

Time (CDT) Temp. Dew Point Humidity Pressure Visibility Wind Dir Wind Speed Gust Speed Precip Events Conditions
12:15 AM 54.9 °F 54.7 °F 99% 29.97 in 2.0 mi Calm Calm - N/A   Overcast
12:35 AM 54.5 °F 54.5 °F 100% 29.97 in 0.8 mi Calm Calm - N/A   Overcast
12:55 AM 54.5 °F 54.5 °F 100% 29.96 in 0.5 mi Calm Calm - N/A Fog Fog
1:15 AM 54.5 °F 54.5 °F 100% 29.95 in 1.2 mi Calm Calm - N/A   Overcast
1:35 AM 54.5 °F 54.5 °F 100% 29.95 in 1.0 mi Calm Calm - N/A   Overcast
1:55 AM 54.7 °F 54.7 °F 100% 29.94 in 1.2 mi Calm Calm - N/A   Overcast
2:15 AM 54.5 °F 54.5 °F 100% 29.94 in 1.0 mi Calm Calm - N/A   Overcast
2:35 AM 54.7 °F 54.7 °F 100% 29.94 in 1.5 mi Calm Calm - N/A Rain Light Rain
2:55 AM 54.5 °F 54.5 °F 100% 29.94 in 1.2 mi Calm Calm - N/A   Overcast
3:15 AM 54.5 °F 54.5 °F 100% 29.94 in 4.0 mi Calm Calm - N/A   Overcast
3:35 AM 54.5 °F 54.5 °F 100% 29.94 in 4.0 mi Calm Calm - N/A   Overcast
3:55 AM 54.7 °F 54.7 °F 100% 29.95 in 1.2 mi Calm Calm - N/A   Overcast
4:15 AM 54.5 °F 54.5 °F 100% 29.95 in 1.8 mi Calm Calm - N/A   Overcast
4:35 AM 54.5 °F 54.5 °F 100% 29.95 in 1.8 mi Calm Calm - N/A   Overcast
4:55 AM 54.5 °F 54.5 °F 100% 29.96 in 1.2 mi Calm Calm - N/A   Overcast
5:15 AM 54.5 °F 54.5 °F 100% 29.96 in 2.5 mi Calm Calm - N/A   Overcast
5:35 AM 54.5 °F 54.5 °F 100% 29.97 in 1.8 mi Calm Calm - N/A   Overcast
5:55 AM 54.5 °F 54.5 °F 100% 29.97 in 0.5 mi Calm Calm - N/A Fog Fog
6:15 AM 54.5 °F 54.5 °F 100% 29.98 in 0.5 mi Calm Calm - N/A Fog Fog
6:35 AM 54.7 °F 54.7 °F 100% 29.99 in 0.5 mi Calm Calm - N/A Fog Fog
6:55 AM 54.9 °F 54.9 °F 100% 29.99 in 1.8 mi Calm Calm - N/A   Overcast
7:15 AM 55.2 °F 55.0 °F 99% 30.00 in 3.0 mi Calm Calm - N/A   Overcast
7:35 AM 55.4 °F 55.0 °F 99% 30.00 in 4.0 mi Calm Calm - N/A   Overcast
7:55 AM 56.1 °F 55.4 °F 97% 30.01 in 5.0 mi Calm Calm - N/A   Overcast
8:15 AM 56.3 °F 55.2 °F 96% 30.01 in 7.0 mi Calm Calm - N/A   Overcast
8:35 AM 57.2 °F 55.8 °F 95% 30.02 in 7.0 mi Calm Calm - N/A   Overcast
8:55 AM 58.5 °F 56.3 °F 93% 30.02 in 10.0 mi Calm Calm - N/A   Overcast
9:15 AM 59.5 °F 56.7 °F 90% 30.01 in 10.0 mi Calm Calm - N/A   Overcast
9:35 AM 61.0 °F 56.7 °F 86% 30.02 in 10.0 mi Calm Calm - N/A   Overcast
9:55 AM 63.3 °F 56.3 °F 78% 30.02 in 10.0 mi WNW 6.9 mph - N/A   Overcast
10:15 AM 64.4 °F 55.4 °F 73% 30.02 in 10.0 mi West 6.9 mph - N/A   Overcast
10:35 AM 64.4 °F 55.2 °F 72% 30.02 in 10.0 mi WNW 5.8 mph - N/A   Overcast
10:55 AM 65.5 °F 55.0 °F 69% 30.02 in 10.0 mi WNW 3.5 mph - N/A   Overcast
11:15 AM 66.2 °F 54.7 °F 66% 30.02 in 10.0 mi WNW 5.8 mph - N/A   Overcast
11:35 AM 66.4 °F 53.8 °F 64% 30.02 in 10.0 mi NNW 8.1 mph - N/A   Overcast
11:55 AM 66.6 °F 56.1 °F 69% 30.02 in 10.0 mi NNW 4.6 mph - N/A   Mostly Cloudy
12:15 PM 67.8 °F 54.0 °F 61% 30.01 in 10.0 mi West 5.8 mph - N/A   Mostly Cloudy
12:35 PM 66.9 °F 54.1 °F 63% 30.01 in 10.0 mi NNW 5.8 mph - N/A   Mostly Cloudy
12:55 PM 66.9 °F 52.7 °F 60% 30.01 in 10.0 mi NNW 8.1 mph - N/A   Overcast
1:15 PM 67.3 °F 53.8 °F 62% 30.01 in 10.0 mi West 5.8 mph - N/A   Overcast
1:35 PM 68.9 °F 53.2 °F 57% 30.01 in 10.0 mi WNW 5.8 mph - N/A   Overcast
1:55 PM 65.7 °F 55.8 °F 70% 30.02 in 10.0 mi WNW 8.1 mph 17.3 mph N/A Rain Light Rain
2:15 PM 67.3 °F 54.9 °F 64% 30.01 in 10.0 mi South 3.5 mph - N/A   Overcast
2:35 PM 69.1 °F 53.4 °F 57% 30.01 in 10.0 mi West 8.1 mph 18.4 mph N/A   Overcast
2:55 PM 69.3 °F 53.6 °F 57% 30.00 in 10.0 mi NW 5.8 mph - N/A   Overcast
3:35 PM 70.5 °F 53.2 °F 54% 30.00 in 10.0 mi NW 11.5 mph - N/A   Overcast
3:55 PM 70.0 °F 53.6 °F 56% 30.00 in 10.0 mi NNW 4.6 mph - N/A   Overcast
4:15 PM 70.3 °F 53.6 °F 55% 30.00 in 10.0 mi West 5.8 mph - N/A   Overcast
4:35 PM 70.7 °F 53.6 °F 55% 30.00 in 10.0 mi NW 6.9 mph - N/A   Overcast
4:55 PM 68.4 °F 57.4 °F 68% 30.00 in 10.0 mi ENE 9.2 mph - N/A   Overcast
5:15 PM 64.2 °F 59.0 °F 83% 30.02 in 5.0 mi NNE 5.8 mph - 0.05 in Rain Heavy Rain
5:35 PM 61.2 °F 59.7 °F 95% 30.02 in 3.0 mi SSE 3.5 mph - 0.13 in Rain Rain
5:55 PM 61.0 °F 59.2 °F 94% 30.03 in 10.0 mi Calm Calm - 0.13 in Rain Light Rain
6:15 PM 61.2 °F 60.1 °F 96% 30.03 in 7.0 mi Calm Calm - 0.03 in Rain Light Rain
6:35 PM 61.3 °F 59.7 °F 94% 30.04 in 10.0 mi Calm Calm - 0.03 in   Drizzle
6:55 PM 61.2 °F 59.4 °F 94% 30.05 in 10.0 mi Calm Calm - 0.03 in Rain Light Rain
7:15 PM 60.8 °F 59.5 °F 96% 30.05 in 7.0 mi ESE 3.5 mph - N/A Rain Light Rain
7:35 PM 60.6 °F 59.9 °F 97% 30.06 in 10.0 mi Calm Calm - N/A   Mostly Cloudy
7:55 PM 59.9 °F 59.5 °F 99% 30.06 in 7.0 mi Calm Calm - N/A   Mostly Cloudy
8:15 PM 59.4 °F 59.2 °F 99% 30.06 in 7.0 mi Calm Calm - N/A   Mostly Cloudy
8:35 PM 58.6 °F 57.6 °F 96% 30.06 in 10.0 mi Calm Calm - N/A   Mostly Cloudy
8:55 PM 58.1 °F 56.7 °F 95% 30.07 in 10.0 mi Calm Calm - N/A Thunderstorm Scattered Clouds
9:15 PM 57.6 °F 56.8 °F 97% 30.07 in 10.0 mi Calm Calm - N/A   Clear
9:35 PM 57.2 °F 56.3 °F 97% 30.07 in 10.0 mi Calm Calm - N/A   Scattered Clouds
10:15 PM 56.3 °F 55.4 °F 97% 30.08 in 10.0 mi Calm Calm - N/A   Scattered Clouds
10:35 PM 55.6 °F 54.9 °F 97% 30.08 in 10.0 mi Calm Calm - 0.01 in   Scattered Clouds
10:55 PM 55.0 °F 54.7 °F 99% 30.09 in 10.0 mi Calm Calm - 0.01 in   Mostly Cloudy